Copper Mountain, CO

5:24 PM MDT on October 13, 2019 (GMT -0600)
Copper Mountain

Weather History for KCCU - September, 2019

Change the Weather History Date:

Sunday, September 15, 2019

  Actual Average Record
Temperature  
Mean Temperature 58 °F -  
Max Temperature 68 °F - 73 °F (2018)
Min Temperature 48 °F - 23 °F (2004)
Degree Days  
Heating Degree Days 7    
Month to date heating degree days 145  
Cooling Degree Days 0    
Month to date cooling degree days 2  
Growing Degree Days 9 (Base 50)    
Moisture  
Dew Point 18 °F    
Average Humidity 23    
Maximum Humidity 33    
Minimum Humidity 12    
Precipitation  
Precipitation 0.00 in - 0.20 in (2013)
Snow  
Snow 0.00 in - - ()
Snow Depth 0.00 in    
Sea Level Pressure  
Sea Level Pressure 30.62 in    
Wind  
Wind Speed 7 mph (SE)    
Max Wind Speed 17 mph    
Max Gust Speed 23 mph    
Visibility 10 miles    
Events      
T = Trace of Precipitation, MM = Missing Value Source: NWS Daily Summary

Daily Weather History Graph

Daily Weather History Graph

Search for Another Location

Airport or City:

Astronomy

Sep. 15, 2019 Rise Set
Actual Time 6:45 AM MDT 7:13 PM MDT
Civil Twilight 6:18 AM MDT 7:40 PM MDT
Nautical Twilight 5:46 AM MDT 8:11 PM MDT
Astronomical Twilight 5:14 AM MDT 8:44 PM MDT
Moon 8:22 PM MDT (9/15) 7:58 AM MDT (9/15)
Length of Visible Light 13h 21m
Length of Day
12h 27m
Full, 98% of the Moon is Illuminated
Sep 15
Full
Sep 21
Last Quarter
Sep 28
New
Oct 5
First Quarter
Oct 13
Full

Hourly Weather History & Observations

Time (MDT) Temp. Dew Point Humidity Pressure Visibility Wind Dir Wind Speed Gust Speed Precip Events Conditions
12:12 AM 53.6 °F 14.0 °F 21% 30.68 in 10.0 mi East 5.8 mph - N/A   Clear
12:30 AM 51.8 °F 14.0 °F 22% 30.68 in 10.0 mi NNE 4.6 mph - N/A   Clear
12:54 AM 51.8 °F 14.0 °F 22% 30.68 in 10.0 mi East 3.5 mph - N/A   Clear
1:12 AM 53.6 °F 14.0 °F 21% 30.68 in 10.0 mi East 10.4 mph - N/A   Clear
1:30 AM 53.6 °F 14.0 °F 21% 30.68 in 10.0 mi ESE 10.4 mph - N/A   Clear
1:54 AM 53.6 °F 14.0 °F 21% 30.69 in 10.0 mi North - - N/A   Clear
2:13 AM 53.6 °F 14.0 °F 21% 30.68 in 10.0 mi SE 5.8 mph - N/A   Clear
2:31 AM 53.6 °F 14.0 °F 21% 30.68 in 10.0 mi South 10.4 mph 16.1 mph N/A   Clear
2:49 AM 53.6 °F 14.0 °F 21% 30.67 in 10.0 mi SE 6.9 mph 17.3 mph N/A   Clear
3:12 AM 53.6 °F 15.8 °F 22% 30.66 in 10.0 mi SSE 8.1 mph - N/A   Clear
3:30 AM 51.8 °F 14.0 °F 22% 30.66 in 10.0 mi SE 6.9 mph - N/A   Clear
3:54 AM 53.6 °F 14.0 °F 21% 30.66 in 10.0 mi SE 5.8 mph - N/A   Clear
4:12 AM 51.8 °F 14.0 °F 22% 30.65 in 10.0 mi ESE 5.8 mph - N/A   Clear
4:30 AM 50.0 °F 12.2 °F 22% 30.65 in 10.0 mi SE 6.9 mph - N/A   Clear
4:54 AM 51.8 °F 12.2 °F 21% 30.65 in 10.0 mi North - - N/A   Clear
5:12 AM 53.6 °F 14.0 °F 21% 30.65 in 10.0 mi SE 5.8 mph - N/A   Clear
5:30 AM 53.6 °F 14.0 °F 21% 30.65 in 10.0 mi ESE 6.9 mph - N/A   Clear
5:54 AM 51.8 °F 14.0 °F 22% 30.65 in 10.0 mi SE 9.2 mph - N/A   Clear
6:13 AM 53.6 °F 14.0 °F 21% 30.65 in 10.0 mi SSE 13.8 mph 17.3 mph N/A   Clear
6:31 AM 53.6 °F 14.0 °F 21% 30.66 in 10.0 mi SSE 12.7 mph 18.4 mph N/A   Clear
6:49 AM 51.8 °F 14.0 °F 22% 30.65 in 10.0 mi SE 10.4 mph 17.3 mph N/A   Clear
7:12 AM 53.6 °F 15.8 °F 22% 30.65 in 10.0 mi East 8.1 mph - N/A   Clear
7:48 AM 53.6 °F 14.0 °F 21% 30.65 in 10.0 mi SE 5.8 mph - N/A   Clear
8:12 AM 55.4 °F 17.6 °F 23% 30.66 in 10.0 mi Calm Calm - N/A   Clear
8:30 AM 55.4 °F 17.6 °F 23% 30.66 in 10.0 mi SE 4.6 mph - N/A   Clear
8:48 AM 59.0 °F 17.6 °F 20% 30.67 in 10.0 mi SE 8.1 mph - N/A   Clear
9:12 AM 59.0 °F 17.6 °F 20% 30.67 in 10.0 mi SE 8.1 mph - N/A   Clear
9:30 AM 59.0 °F 17.6 °F 20% 30.67 in 10.0 mi Calm Calm - N/A   Clear
9:48 AM 59.0 °F 19.4 °F 22% 30.67 in 10.0 mi Calm Calm - N/A   Clear
10:12 AM 55.4 °F 19.4 °F 25% 30.67 in 10.0 mi Calm Calm - N/A   Clear
10:30 AM 59.0 °F 19.4 °F 22% 30.67 in 10.0 mi NW 3.5 mph - N/A   Clear
10:52 AM 59.0 °F 19.4 °F 22% 30.67 in 10.0 mi Calm Calm - N/A   Clear
11:12 AM 60.8 °F 19.4 °F 20% 30.65 in 10.0 mi NW 5.8 mph - N/A   Clear
11:30 AM 60.8 °F 19.4 °F 20% 30.65 in 10.0 mi NNW 6.9 mph - N/A   Clear
11:53 AM 62.6 °F 15.8 °F 16% 30.64 in 10.0 mi ESE 4.6 mph - N/A   Clear
12:12 PM 62.6 °F 19.4 °F 19% 30.64 in 10.0 mi North 11.5 mph - N/A   Clear
12:29 PM 62.6 °F 14.0 °F 15% 30.63 in 10.0 mi ESE 10.4 mph 16.1 mph N/A   Clear
12:52 PM 68.0 °F 14.0 °F 12% 30.62 in 10.0 mi SE 10.4 mph 20.7 mph N/A   Clear
1:12 PM 68.0 °F 15.8 °F 13% 30.62 in 10.0 mi East 11.5 mph 18.4 mph N/A   Clear
1:30 PM 66.2 °F 14.0 °F 13% 30.62 in 10.0 mi East 6.9 mph 19.6 mph N/A   Clear
1:48 PM 64.4 °F 15.8 °F 15% 30.60 in 10.0 mi SE 8.1 mph 18.4 mph N/A   Clear
2:12 PM 64.4 °F 17.6 °F 16% 30.59 in 10.0 mi SE 18.4 mph - N/A   Scattered Clouds
2:30 PM 64.4 °F 17.6 °F 16% 30.59 in 10.0 mi ESE 10.4 mph 16.1 mph N/A   Scattered Clouds
2:53 PM 62.6 °F 17.6 °F 18% 30.59 in 10.0 mi SSE 8.1 mph 23.0 mph N/A   Scattered Clouds
3:12 PM 64.4 °F 17.6 °F 16% 30.59 in 10.0 mi SW 9.2 mph - N/A   Mostly Cloudy
3:30 PM 64.4 °F 17.6 °F 16% 30.58 in 10.0 mi SE 6.9 mph 16.1 mph N/A   Overcast
3:53 PM 60.8 °F 21.2 °F 22% 30.57 in 10.0 mi West 9.2 mph - N/A   Overcast
4:12 PM 59.0 °F 21.2 °F 23% 30.57 in 10.0 mi WNW 8.1 mph - N/A   Overcast
4:30 PM 59.0 °F 21.2 °F 23% 30.56 in 10.0 mi WNW 9.2 mph - N/A   Overcast
4:48 PM 59.0 °F 23.0 °F 25% 30.56 in 10.0 mi North - - N/A   Overcast
5:12 PM 59.0 °F 23.0 °F 25% 30.56 in 10.0 mi NW 8.1 mph 23.0 mph N/A   Overcast
5:31 PM 59.0 °F 23.0 °F 25% 30.56 in 10.0 mi West 11.5 mph 16.1 mph N/A   Overcast
5:49 PM 55.4 °F 23.0 °F 29% 30.56 in 10.0 mi WNW 17.3 mph 23.0 mph N/A   Overcast
6:09 PM 55.4 °F 21.2 °F 26% 30.56 in 10.0 mi North - - N/A   Overcast
6:33 PM 55.4 °F 21.2 °F 26% 30.56 in 10.0 mi West 11.5 mph 20.7 mph N/A   Overcast
6:51 PM 55.4 °F 21.2 °F 26% 30.56 in 10.0 mi NNW 6.9 mph - N/A   Overcast
7:12 PM 53.6 °F 21.2 °F 28% 30.55 in 10.0 mi West 15.0 mph 23.0 mph N/A   Overcast
7:30 PM 53.6 °F 21.2 °F 28% 30.56 in 10.0 mi North - - N/A   Overcast
7:54 PM 53.6 °F 21.2 °F 28% 30.56 in 10.0 mi North - - N/A   Mostly Cloudy
8:12 PM 53.6 °F 21.2 °F 28% 30.56 in 10.0 mi West 15.0 mph 18.4 mph N/A   Scattered Clouds
8:30 PM 53.6 °F 21.2 °F 28% 30.56 in 10.0 mi North - - N/A   Mostly Cloudy
8:54 PM 51.8 °F 19.4 °F 28% 30.57 in 10.0 mi West 13.8 mph - N/A   Scattered Clouds
9:12 PM 51.8 °F 19.4 °F 28% 30.57 in 10.0 mi North - - N/A   Mostly Cloudy
9:30 PM 51.8 °F 19.4 °F 28% 30.57 in 10.0 mi WNW 9.2 mph - N/A   Overcast
9:54 PM 51.8 °F 21.2 °F 30% 30.57 in 10.0 mi West 5.8 mph - N/A   Overcast
10:12 PM 51.8 °F 21.2 °F 30% 30.56 in 10.0 mi NW 6.9 mph - N/A   Mostly Cloudy
10:30 PM 51.8 °F 19.4 °F 28% 30.56 in 10.0 mi North - - N/A   Scattered Clouds
10:54 PM 50.0 °F 19.4 °F 30% 30.55 in 10.0 mi North - - N/A   Scattered Clouds
11:12 PM 50.0 °F 21.2 °F 32% 30.55 in 10.0 mi North - - N/A   Scattered Clouds
11:30 PM 50.0 °F 21.2 °F 32% 30.54 in 10.0 mi WNW 6.9 mph - N/A   Scattered Clouds
11:48 PM 50.0 °F 23.0 °F 35% 30.54 in 10.0 mi WNW 9.2 mph - N/A   Scattered Clouds